PROFILE

 METAR AND TAF INFORMATION
ADDS - METARS form results

(0631 UTC 22 September 2019)
http://aviationweather.gov/metar/data/
 
ENAT 220550Z AUTO 31008KT 9999 SCT026/// BKN055/// 05/02 Q1019 REDZ RMK WIND 700FT 32012KT
TAF ENAT 220500Z 2206/2215 32010KT 9999 -SHRA FEW010TCU BKN030 

 AIRPORT MAP

 RUNWAY INFORMATION
Runway 11 Runway length 7165 ft Runway width 131 ft
Runway elevation 8 ft Runway displaced threshold 674 ft Runway heading 121
Runway 29 Runway length 7165 ft Runway width 131 ft
Runway elevation 7 ft Runway displaced threshold 418 ft Runway heading 301

 AIRPORT FREQUENCIES
Type ATIS Name ATIS Frequency 118.175 MHZ
Type TWR Name TWR Frequency 118.1 MHZ

 AIRPORT NEAR NAVIGATION AIDS
Type NDB Name Alta Frequency 358 KHZ
Type VOR-DME Name Alta Frequency 117400 KHZ